パンスターズ彗星

C/2020 S4 ( PanSTARRS )

English version
Home page
Updated on April 28, 2023

---------------------------------------------------------------------

・ プロフィール

発見日 2020年9月16日
発見光度 21.3等
発見者 Pan-STARRS 1 telescope (Haleakala)

・ 写真集

・ 軌道要素

Epoch 2023 Feb. 25.0 TT = JDT 2460000.5
T 2023 Feb.  9.23649 TT                                 Rudenko
q   3.3697352            (2000.0)            P               Q
z  -0.0003557      Peri.   20.99082     -0.73119063     -0.60714681
 +/-0.0000015      Node   117.72162     +0.56507325     -0.79448194
e   1.0011985      Incl.   20.56976     +0.38216815     +0.01308436
>From 1165 observations 2020 Sept. 16-2023 Feb. 26, mean residual 0".7.

・ 星図

・ 光度変化

        m1 = 8.0 + 5 logΔ + 8.5 log r

---------------------------------------------------------------------

軌道要素はM.P.E.C. 2023-D72に掲載されたものです。
星図はステラナビゲータ Ver.10 (アストロアーツ) で作成したものです。
光度グラフはComet for Windowsで作成したものです。

---------------------------------------------------------------------

Copyright(C) Seiichi Yoshida (comet@aerith.net). All rights reserved.